Temperature
15 15 15 15 15 14 14 14 14 14 14 14 14 14 14 13 13 13 13 13 13 13 13 13 13 13 13 13 13 13 13 13 12 13 13 13 13 13 13 13 13 13 12
15 15 15 15 15 14 14 14 14 14 14 14 14 14 13 13 13 13 13 13 13 13 13 13 13 13 13 13 13 13 13 12 12 12 12 12 12 12 12 12 12 12 12
15 15 15 15 14 14 14 14 14 14 14 14 14 14 13 13 13 13 13 13 13 13 13 13 12 12 12 12 12 12 12 12 12 12 12 12 12 12 12 12 12 12 12
15 15 15 15 14 14 14 14 14 14 14 14 14 13 13 13 13 13 13 13 13 13 12 12 12 12 12 12 12 12 12 12 12 12 12 12 12 12 12 12 12 12 12
15 15 15 14 14 14 14 14 14 14 14 14 14 13 13 13 13 13 13 13 13 12 12 12 12 12 12 12 12 12 12 12 12 12 11 11 12 12 12 11 11 11 11
15 15 14 14 14 14 14 14 14 14 14 13 13 13 13 13 13 13 13 12 12 12 12 12 12 12 12 12 12 12 12 12 11 11 11 11 11 11 11 11 11 11 11
14 14 14 14 14 14 14 14 14 14 14 14 13 13 13 13 13 12 12 12 12 12 12 12 12 12 12 12 12 11 11 11 11 11 11 11 11 11 11 11 11 11 11
14 14 14 14 13 13 13 13 13 13 13 13 13 13 13 13 13 12 12 12 12 12 12 12 12 12 11 11 11 11 11 11 11 11 11 11 11 11 11 10 10 10 10
14 14 14 13 13 13 13 13 13 13 13 13 13 13 13 13 13 12 12 12 12 12 12 12 12 11 11 11 11 11 11 11 11 11 11 11 10 10 10 10 10 10 10
14 14 13 13 13 13 13 13 13 13 13 13 13 13 13 13 12 12 12 12 12 12 12 12 12 11 11 11 11 11 11 11 11 10 10 10 10 10 10 10 10 10 10
13 13 13 13 13 13 13 13 13 13 13 13 13 13 12 12 12 12 12 12 12 12 12 12 12 11 11 11 11 11 11 11 10 10 10 10 10 10 10 10 10 10 10
13 13 13 13 13 13 12 13 12 12 12 12 12 12 12 12 12 12 12 12 12 12 12 12 12 11 11 11 11 10 10 10 10 10 10 10 10 10 10 10 10 10 10
13 13 13 13 12 12 12 12 12 12 12 12 12 12 12 12 12 12 12 12 12 12 12 11 11 11 11 11 11 10 10 10 10 10 10 10 10 10 9 9 9 9 9
12 12 12 12 12 12 12 12 12 12 12 12 12 12 12 12 12 12 12 12 12 11 11 11 11 11 11 11 10 10 10 10 10 10 10 10 10 9 9 9 9 9 9
12 12 12 12 12 12 12 12 12 12 12 12 12 12 12 12 12 12 11 11 11 11 11 11 11 11 11 10 10 10 10 10 10 10 9 9 9 9 9 9 9 9 9
12 12 11 11 11 11 11 11 11 11 11 11 11 11 11 12 11 11 11 11 11 11 11 11 11 10 10 10 10 10 10 10 10 9 9 9 9 9 9 9 9 9 8
11 11 11 11 11 11 11 11 11 11 11 11 11 11 11 11 11 11 11 11 10 10 10 10 10 10 10 10 10 10 10 10 9 9 9 9 9 9 9 9 9 9 8
11 11 11 11 11 11 11 11 11 11 11 11 11 11 11 11 11 10 10 10 10 10 10 10 10 10 10 10 9 9 9 9 9 9 9 9 9 9 9 9 9 8 8
11 11 11 11 11 11 11 11 11 11 11 11 11 11 10 10 10 10 10 10 10 9 9 9 9 9 9 9 9 9 9 9 9 9 9 9 9 9 8 8 8 8 8
10 10 10 10 10 11 11 11 11 11 10 10 10 10 10 10 10 10 10 9 9 9 9 9 9 9 9 9 9 9 8 8 8 8 8 8 8 8 8 8 8 8 8
10 10 10 10 10 10 10 10 10 10 10 10 10 10 10 10 10 9 9 9 9 9 9 8 8 8 8 8 8 8 8 8 8 8 8 8 8 8 8 8 8 8 7
10 10 10 10 10 10 10 10 10 10 10 10 10 9 9 9 9 9 9 9 9 8 8 8 8 8 8 8 8 8 8 8 8 8 8 8 8 7 7 7 7 7 7
10 10 10 10 10 10 10 10 10 10 10 10 9 9 9 9 9 9 9 9 8 8 8 8 8 8 8 8 8 7 7 7 7 7 7 7 7 7 7 7 7 7 7
10 10 10 9 9 9 10 10 10 9 9 9 9 9 9 9 8 8 8 8 8 8 8 8 8 7 7 7 7 7 7 7 7 7 7 7 7 7 7 7 7 7 7
9 9 9 9 9 9 9 9 9 9 9 9 9 9 8 8 8 8 8 8 7 7 7 7 7 7 7 7 7 7 7 7 7 7 7 7 7 7 7 7 6 6 7
9 9 9 9 9 9 9 9 9 9 9 8 8 8 8 8 8 8 7 7 7 7 7 7 7 7 7 7 7 7 7 7 7 7 7 7 7 7 6 6 6 6 6
Wind_Speed
5 5 5 5 5 5 5 5 4 3 3 3 4 3 3 3 3 4 4 4 4 4 3 4 4 3 3 3 3 4 4 4 4 3 2 2 2 2 2 3 4 4 5
5 5 5 4 4 5 4 4 4 4 4 4 4 4 4 4 4 4 5 4 5 5 5 4 5 3 4 3 3 4 4 4 4 4 2 2 2 2 2 2 2 3 3
5 5 5 4 4 5 5 4 4 4 4 3 3 4 4 4 4 5 5 5 5 5 5 5 5 4 4 3 3 4 3 4 3 3 3 1 2 1 1 1 1 2 2
4 5 5 5 5 5 4 4 4 4 4 4 4 4 4 4 4 5 5 4 4 4 5 5 5 5 6 5 4 4 4 3 3 3 2 2 2 1 1 1 2 2 2
4 4 5 4 3 3 3 4 3 3 4 4 4 4 4 4 5 5 5 5 5 5 5 5 5 6 6 5 4 4 4 3 3 3 2 2 2 2 2 2 2 2 2
4 4 3 2 2 3 3 3 3 3 3 2 3 4 4 4 5 6 6 5 5 5 5 5 5 5 6 6 6 6 6 6 5 4 3 4 4 3 2 2 2 1 2
4 3 3 3 3 3 3 3 3 3 2 2 3 3 4 4 5 6 7 5 5 5 5 4 4 3 4 3 4 4 4 6 7 6 5 5 4 4 4 3 3 3 4
3 3 3 3 3 2 2 3 3 3 3 3 3 3 3 4 4 5 6 5 4 4 5 5 5 4 4 4 3 2 3 4 5 5 6 6 5 4 5 4 4 3 2
3 3 3 4 3 3 3 3 3 3 3 3 3 3 3 4 4 4 4 3 3 4 4 4 5 4 5 5 3 3 3 3 3 5 6 5 5 4 4 3 2 2 3
2 2 3 3 4 3 4 3 2 2 3 3 3 3 4 4 4 4 5 3 3 3 3 3 4 5 5 5 4 4 4 4 2 2 2 3 3 3 4 5 5 4 3
1 1 1 2 3 3 3 3 2 3 3 3 3 3 3 4 4 4 5 4 5 4 3 3 3 5 6 6 5 5 6 4 2 1 1 2 1 2 2 3 4 5 4
1 0 1 1 1 2 2 2 2 2 2 3 3 3 3 3 4 4 5 5 5 4 4 4 3 5 6 5 5 5 5 3 2 1 1 2 2 3 3 3 4 5 6
0 0 1 0 1 0 1 1 1 1 2 2 3 3 3 3 3 4 5 5 5 4 4 4 4 4 4 3 4 4 3 2 2 2 3 3 3 3 3 2 2 2 3
0 1 0 1 1 1 1 1 1 2 2 2 3 3 3 3 2 2 2 3 4 4 3 2 3 3 2 2 2 2 2 3 3 3 3 3 2 2 2 2 2 1 1
0 1 1 0 0 1 1 1 2 3 3 4 4 4 3 3 3 4 3 3 3 3 2 1 1 0 1 1 1 2 2 2 3 3 3 3 2 2 3 2 2 1 1
0 1 1 1 1 1 1 2 2 2 2 3 4 4 4 4 3 3 3 3 2 4 4 2 1 2 2 3 2 2 2 3 3 3 3 3 4 3 3 2 2 2 3
1 1 1 1 1 1 1 1 2 3 2 1 1 2 3 2 2 2 2 3 3 5 3 2 2 2 3 3 3 3 3 3 3 3 3 4 4 3 3 3 3 3 3
1 1 1 1 1 1 1 2 2 1 2 2 2 1 0 1 2 2 4 5 2 2 1 2 3 3 3 3 3 3 3 3 2 3 3 4 4 4 4 4 4 4 4
1 1 1 1 1 1 2 2 2 1 2 2 2 2 1 1 2 2 4 2 1 1 2 2 2 3 3 3 3 3 3 3 3 3 3 4 4 4 4 4 4 4 4
1 1 1 1 1 1 1 1 1 1 1 1 1 2 0 1 1 1 1 1 2 2 2 2 2 3 2 2 3 3 3 3 3 3 3 4 4 4 4 5 5 5 5
1 1 1 1 1 1 1 2 2 2 2 2 2 2 2 2 2 2 2 2 2 3 3 3 2 2 2 2 2 3 3 3 3 4 4 4 4 4 4 4 5 5 5
1 1 1 1 1 2 2 2 2 2 2 2 2 1 2 2 2 2 2 2 2 2 2 2 3 3 3 3 3 3 4 4 4 4 4 4 4 4 4 4 5 5 5
1 1 1 1 1 1 1 1 1 2 2 2 1 0 1 1 1 1 2 2 2 2 2 2 2 3 3 3 3 4 5 5 5 5 4 4 4 4 4 5 6 6 6
1 1 1 1 1 1 1 1 1 2 2 2 1 1 1 1 2 2 2 2 2 2 2 2 3 4 4 3 3 4 4 5 5 4 5 5 5 4 4 4 5 6 6
1 1 1 1 1 1 1 1 1 2 2 2 2 1 1 1 2 2 2 2 2 2 3 3 3 3 4 5 5 4 4 4 4 3 4 4 5 5 4 5 5 5 5
1 1 1 1 1 1 2 2 2 2 2 2 2 2 2 2 2 2 2 2 2 3 3 3 3 4 4 4 4 4 3 3 3 3 3 3 3 3 3 4 5 5 5
Wind_Direction
188 190 180 179 178 178 191 206 209 212 208 210 211 208 206 204 201 198 209 202 208 222 220 216 232 233 229 225 211 203 205 199 223 259 258 270 251 257 277 269 268 260 257
187 180 184 180 175 184 199 210 207 212 218 217 212 208 208 204 199 202 217 215 214 223 226 221 235 230 228 230 220 217 214 208 208 242 267 273 264 267 266 271 274 267 268
174 171 176 184 188 200 208 208 205 210 219 217 207 210 215 210 207 210 211 216 219 222 221 219 227 219 227 228 220 220 219 211 204 214 246 257 268 275 288 288 279 287 287
170 169 179 194 200 206 207 204 205 207 212 217 213 215 218 216 215 214 210 211 217 227 227 223 222 215 220 222 221 221 212 201 197 201 229 255 261 263 232 247 277 280 283
164 175 195 199 192 193 200 205 204 207 219 218 215 219 222 220 221 215 212 213 217 230 236 230 223 219 220 217 217 212 200 196 196 204 223 236 250 251 239 229 245 278 282
169 190 191 179 182 199 211 206 202 211 219 214 221 223 228 233 227 214 209 213 218 224 234 240 234 227 229 227 225 215 199 198 203 208 223 232 246 244 230 224 229 255 273
180 179 169 175 195 213 212 201 211 211 205 218 229 222 232 245 228 216 212 205 213 224 229 231 237 236 222 226 235 230 223 217 205 204 222 233 234 226 215 224 221 227 248
176 182 175 182 203 207 196 215 226 214 207 218 229 227 232 249 234 219 211 209 216 226 227 224 224 234 225 210 217 232 245 245 231 220 225 235 238 228 217 219 220 226 255
182 199 205 199 200 201 211 230 233 219 225 229 228 226 232 259 252 226 201 205 222 237 237 227 218 225 226 194 186 213 249 266 255 227 230 239 241 235 208 187 195 209 257
224 219 210 197 197 210 220 223 224 226 232 233 240 236 232 247 250 227 198 196 215 238 247 236 221 219 215 192 191 203 229 253 259 274 274 270 262 247 214 205 208 216 234
229 253 246 212 204 212 220 219 213 224 229 232 240 248 242 243 244 228 204 199 209 222 238 246 241 218 217 212 206 211 221 222 221 236 263 277 288 283 258 227 219 212 219
169 137 273 262 233 210 206 222 213 209 219 239 242 253 254 249 243 241 224 213 207 210 231 239 235 217 221 221 215 221 218 203 196 209 247 267 273 279 281 268 242 228 228
89 293 303 342 355 326 201 224 237 219 220 245 242 246 260 257 246 240 232 224 209 207 225 224 228 220 219 225 217 209 198 186 185 209 240 255 259 264 279 294 280 247 248
173 309 337 49 358 359 340 251 230 236 237 249 251 253 257 258 250 240 241 236 221 218 226 212 198 201 204 213 208 200 198 199 201 222 242 257 265 266 271 273 280 284 290
229 275 290 265 278 336 320 262 245 243 224 227 242 240 238 251 249 229 218 226 224 210 174 133 139 190 226 232 232 228 216 208 219 232 237 254 265 269 272 256 245 236 243
188 248 241 234 267 286 304 323 320 265 261 237 236 232 235 235 232 205 207 209 191 151 140 165 208 227 234 234 236 244 241 237 237 240 245 248 252 257 264 254 225 232 251
187 222 232 235 245 264 275 279 307 331 342 306 275 249 230 230 211 191 183 153 134 138 140 193 222 235 245 244 240 240 245 250 239 234 245 252 253 255 253 255 246 242 254
172 205 222 238 249 253 251 248 244 268 314 319 325 325 250 176 169 154 135 118 103 134 192 217 236 244 248 247 247 250 257 262 253 246 249 254 251 248 249 253 250 250 258
188 219 239 261 263 260 260 258 258 249 247 276 321 335 19 127 135 137 133 129 163 221 241 249 254 252 255 256 256 253 254 256 262 257 255 255 254 246 251 256 258 254 252
240 239 241 265 295 297 276 264 260 244 248 252 266 267 188 104 100 133 160 185 213 237 246 251 259 260 263 265 266 265 266 267 269 268 267 264 260 253 253 257 258 258 255
244 248 235 267 271 272 264 261 257 240 239 250 263 255 185 185 206 212 213 223 235 241 241 247 258 265 265 266 264 264 265 267 266 265 267 265 265 264 262 258 259 257 258
228 235 245 254 265 266 257 249 245 234 234 243 266 271 184 191 211 219 233 243 245 244 245 245 254 258 256 257 257 260 264 266 267 267 267 266 263 261 263 262 262 262 260
212 222 247 263 260 254 252 245 235 229 238 249 250 227 196 224 234 234 241 253 258 261 264 258 262 274 275 262 252 250 253 258 259 257 259 265 265 262 259 260 262 266 263
218 221 231 249 259 252 249 245 243 238 236 237 239 229 222 228 245 257 261 264 266 271 277 277 274 275 280 285 278 267 264 268 269 261 253 253 259 262 260 261 263 264 264
216 226 231 240 247 255 258 252 246 244 245 247 248 253 255 261 267 274 277 280 284 286 288 288 289 288 291 295 294 290 293 288 281 275 260 253 254 258 260 265 266 268 266
214 225 232 231 239 245 242 240 248 255 254 260 269 273 271 273 277 279 277 288 297 302 304 304 300 297 301 306 309 323 327 324 313 291 272 258 255 260 268 269 274 275 275
Height
1484 1486 1487 1489 1491 1493 1495 1496 1497 1498 1499 1500 1501 1501 1501 1502 1503 1503 1504 1505 1506 1507 1507 1508 1509 1509 1510 1510 1510 1510 1510 1511 1511 1511 1512 1512 1512 1512 1512 1512 1512 1512 1513
1482 1483 1485 1487 1489 1490 1492 1494 1495 1496 1497 1498 1498 1498 1499 1499 1500 1500 1501 1501 1502 1503 1504 1505 1505 1506 1506 1506 1506 1507 1507 1508 1508 1508 1508 1509 1509 1509 1509 1509 1509 1509 1509
1480 1481 1483 1485 1486 1488 1490 1491 1492 1494 1494 1495 1495 1496 1496 1496 1497 1497 1498 1498 1499 1500 1500 1501 1502 1502 1502 1503 1503 1503 1504 1504 1505 1505 1505 1506 1506 1506 1506 1506 1506 1506 1505
1479 1480 1481 1482 1484 1486 1487 1488 1490 1491 1492 1492 1492 1493 1493 1494 1494 1495 1495 1495 1496 1497 1497 1498 1498 1499 1499 1499 1500 1500 1501 1501 1502 1502 1502 1503 1503 1503 1503 1502 1502 1502 1502
1477 1478 1479 1481 1482 1484 1485 1486 1487 1488 1489 1489 1490 1490 1491 1491 1491 1492 1492 1492 1493 1494 1494 1494 1495 1495 1496 1496 1496 1497 1498 1498 1498 1499 1499 1499 1499 1499 1499 1499 1499 1499 1499
1475 1476 1478 1479 1480 1482 1483 1484 1484 1485 1486 1487 1487 1487 1488 1488 1488 1489 1489 1489 1490 1491 1491 1491 1492 1492 1492 1493 1493 1494 1494 1495 1495 1495 1495 1495 1495 1495 1495 1495 1495 1495 1495
1473 1474 1475 1477 1478 1479 1480 1482 1482 1483 1483 1484 1484 1485 1485 1485 1486 1486 1486 1487 1487 1487 1488 1488 1488 1488 1489 1489 1490 1490 1491 1491 1491 1492 1492 1491 1491 1491 1491 1491 1491 1491 1491
1471 1472 1474 1475 1476 1477 1478 1479 1480 1481 1481 1481 1482 1482 1482 1482 1483 1483 1484 1484 1484 1484 1485 1485 1485 1485 1486 1486 1486 1486 1487 1487 1488 1488 1488 1488 1488 1487 1487 1487 1487 1487 1488
1470 1471 1472 1473 1474 1475 1476 1477 1478 1478 1479 1479 1479 1479 1479 1479 1480 1481 1481 1481 1481 1481 1482 1482 1482 1482 1482 1483 1483 1483 1483 1484 1485 1485 1485 1485 1484 1484 1484 1483 1484 1484 1483
1468 1469 1470 1471 1472 1472 1472 1473 1474 1475 1476 1476 1477 1477 1477 1477 1477 1478 1478 1478 1478 1478 1478 1479 1479 1479 1479 1480 1480 1480 1480 1481 1481 1482 1482 1481 1481 1481 1480 1480 1480 1480 1480
1467 1468 1468 1468 1468 1469 1470 1470 1471 1472 1473 1473 1474 1474 1474 1474 1475 1475 1475 1475 1475 1475 1475 1475 1476 1476 1476 1476 1477 1477 1478 1478 1478 1479 1478 1478 1478 1478 1477 1477 1477 1477 1477
1465 1465 1466 1466 1466 1466 1467 1467 1468 1469 1470 1470 1471 1471 1471 1472 1472 1472 1473 1473 1472 1472 1472 1473 1473 1473 1473 1474 1474 1475 1475 1476 1476 1476 1476 1475 1475 1475 1474 1474 1474 1473 1473
1462 1463 1463 1464 1464 1464 1465 1465 1466 1466 1466 1467 1467 1467 1468 1468 1469 1469 1469 1469 1469 1469 1469 1470 1470 1471 1471 1471 1471 1472 1472 1472 1473 1473 1473 1473 1472 1472 1472 1471 1471 1470 1470
1461 1461 1461 1462 1462 1462 1463 1463 1464 1464 1463 1464 1464 1464 1465 1465 1465 1465 1466 1466 1466 1466 1466 1467 1467 1468 1468 1468 1469 1469 1469 1470 1470 1470 1470 1470 1470 1469 1469 1468 1468 1467 1467
1459 1459 1459 1460 1460 1460 1461 1461 1461 1461 1461 1461 1461 1462 1462 1461 1462 1462 1462 1462 1462 1463 1463 1464 1464 1464 1464 1465 1465 1466 1466 1467 1467 1467 1467 1467 1467 1467 1466 1466 1465 1465 1464
1456 1457 1457 1458 1458 1458 1458 1459 1459 1459 1459 1459 1459 1459 1459 1459 1459 1459 1459 1459 1459 1460 1460 1460 1461 1461 1462 1462 1462 1463 1463 1464 1464 1464 1464 1464 1464 1464 1463 1463 1462 1462 1461
1455 1455 1455 1455 1456 1456 1456 1456 1456 1457 1457 1457 1457 1457 1457 1456 1456 1456 1457 1457 1457 1457 1457 1458 1458 1459 1459 1459 1459 1460 1461 1461 1461 1461 1461 1461 1461 1460 1460 1459 1459 1458 1458
1454 1453 1453 1453 1454 1454 1454 1454 1454 1453 1454 1454 1454 1454 1454 1454 1454 1454 1454 1454 1454 1455 1455 1455 1456 1456 1456 1456 1456 1457 1457 1458 1458 1458 1458 1458 1457 1457 1456 1455 1455 1455 1454
1452 1452 1452 1452 1452 1452 1452 1452 1452 1451 1451 1451 1451 1451 1452 1452 1452 1452 1452 1451 1451 1452 1452 1453 1453 1453 1453 1454 1454 1454 1454 1454 1454 1454 1454 1454 1454 1453 1452 1452 1451 1451 1451
1451 1451 1451 1450 1450 1450 1450 1450 1450 1449 1449 1449 1448 1449 1449 1449 1449 1449 1449 1449 1449 1450 1450 1450 1450 1450 1450 1450 1450 1450 1450 1450 1450 1450 1450 1450 1450 1449 1449 1448 1448 1447 1446
1450 1449 1449 1449 1449 1448 1448 1448 1448 1447 1447 1446 1446 1446 1447 1447 1447 1447 1447 1447 1447 1447 1447 1447 1447 1447 1447 1447 1447 1447 1447 1446 1446 1446 1446 1446 1445 1445 1445 1444 1444 1443 1442
1448 1448 1448 1447 1447 1446 1446 1446 1446 1445 1445 1445 1444 1445 1445 1445 1444 1444 1444 1445 1445 1445 1445 1445 1444 1444 1444 1444 1443 1443 1443 1442 1442 1442 1441 1441 1441 1441 1440 1440 1439 1438 1438
1446 1446 1445 1445 1444 1444 1444 1444 1444 1444 1443 1443 1443 1442 1442 1442 1442 1442 1442 1442 1442 1442 1442 1442 1441 1441 1440 1440 1439 1439 1439 1438 1438 1438 1437 1436 1436 1436 1435 1435 1434 1434 1433
1444 1443 1442 1442 1442 1442 1441 1441 1441 1441 1441 1441 1441 1440 1440 1439 1439 1439 1439 1439 1439 1439 1438 1438 1437 1437 1436 1436 1435 1435 1435 1434 1434 1433 1432 1432 1431 1431 1431 1430 1429 1429 1428
1441 1441 1440 1440 1440 1439 1439 1439 1439 1439 1439 1438 1438 1438 1438 1437 1437 1437 1437 1436 1436 1435 1435 1434 1433 1433 1432 1431 1431 1431 1430 1430 1429 1429 1428 1427 1427 1427 1426 1426 1425 1424 1424
1439 1439 1438 1438 1438 1437 1437 1437 1437 1437 1436 1436 1435 1435 1435 1434 1434 1434 1433 1433 1432 1431 1431 1430 1430 1429 1428 1427 1427 1426 1426 1425 1425 1424 1424 1423 1423 1423 1422 1422 1421 1421 1420